| time (UTC) | temp F | wind direction | speed knots | gust knots | rain 1hr in | rain 24hr in | rain mn in | humidity % | barometer mb |
| 20260505152016 | 49 | 0.0 | 4.3 | 0.01 | 1.28 | 0.67 | 95 | 1008.8 | |
| 20260505151016 | 49 | 0.0 | 4.3 | 0.07 | 1.28 | 0.67 | 95 | 1008.4 | |
| 20260505125017 | 50 | 338 | 2.6 | 7.0 | 0.01 | 1.20 | 0.59 | 95 | 1008.8 |
| 20260505124017 | 50 | 315 | 0.9 | 5.2 | 0.01 | 1.20 | 0.59 | 95 | 1008.5 |
| 20260505123016 | 50 | 0.0 | 3.5 | 0.02 | 1.20 | 0.59 | 95 | 1007.7 | |
| 20260505122015 | 51 | 0.0 | 0.0 | 0.02 | 1.20 | 0.59 | 94 | 1007.4 | |
| 20260505121016 | 51 | 0.0 | 2.6 | 0.02 | 1.20 | 0.59 | 95 | 1007.3 | |
| 20260505120016 | 51 | 0.0 | 1.7 | 0.02 | 1.20 | 0.59 | 94 | 1007.0 | |
| 20260505115036 | 51 | 0.0 | 0.0 | 0.01 | 1.19 | 0.58 | 94 | 1006.9 | |
| 20260505114037 | 51 | 0.0 | 1.7 | 0.01 | 1.19 | 0.58 | 93 | 1008.1 | |
| 20260505113017 | 52 | 0.0 | 3.5 | 0.00 | 1.18 | 0.57 | 94 | 1008.1 | |
| 20260505112016 | 52 | 0.0 | 0.0 | 0.00 | 1.18 | 0.57 | 94 | 1008.2 | |
| 20260505111016 | 52 | 315 | 1.7 | 6.1 | 0.00 | 1.18 | 0.57 | 94 | 1007.7 |
| 20260505102036 | 55 | 0.0 | 0.0 | 0.00 | 1.18 | 0.57 | 95 | 1006.4 | |
| 20260505101016 | 56 | 0.0 | 0.0 | 0.00 | 1.18 | 0.57 | 95 | 1006.4 | |
| 20260505100015 | 56 | 0.0 | 0.0 | 0.00 | 1.18 | 0.57 | 95 | 1006.1 | |
| 20260505095015 | 56 | 0.0 | 0.9 | 0.00 | 1.18 | 0.57 | 95 | 1005.3 | |
| 20260505094016 | 56 | 0.0 | 0.0 | 0.00 | 1.18 | 0.57 | 95 | 1004.7 | |
| 20260505093016 | 56 | 0.0 | 1.7 | 0.00 | 1.18 | 0.57 | 95 | 1004.5 | |
| 20260505092016 | 56 | 0.0 | 0.0 | 0.00 | 1.18 | 0.57 | 95 | 1004.3 | |
| 20260505091035 | 56 | 0.0 | 0.0 | 0.00 | 1.18 | 0.57 | 95 | 1004.4 | |
| 20260505090015 | 56 | 0.0 | 0.0 | 0.00 | 1.18 | 0.57 | 95 | 1004.3 | |
| 20260505085016 | 56 | 0.0 | 0.0 | 0.00 | 1.18 | 0.57 | 94 | 1004.3 | |
| 20260505084015 | 56 | 0.0 | 0.0 | 0.00 | 1.18 | 0.57 | 94 | 1004.3 | |
| 20260505083015 | 56 | 225 | 0.9 | 5.2 | 0.00 | 1.18 | 0.57 | 95 | 1004.7 |
| 20260505082016 | 57 | 225 | 2.6 | 7.0 | 0.00 | 1.18 | 0.57 | 95 | 1005.0 |
| 20260505081016 | 57 | 225 | 1.7 | 8.7 | 0.00 | 1.18 | 0.57 | 95 | 1005.3 |
| 20260505080015 | 57 | 203 | 1.7 | 6.1 | 0.00 | 1.18 | 0.57 | 95 | 1004.8 |
| 20260505075016 | 56 | 225 | 0.9 | 5.2 | 0.00 | 1.18 | 0.57 | 94 | 1004.6 |
| 20260505074016 | 56 | 180 | 1.7 | 5.2 | 0.00 | 1.18 | 0.57 | 95 | 1004.9 |
| 20260505073056 | 56 | 180 | 1.7 | 5.2 | 0.00 | 1.18 | 0.57 | 94 | 1005.3 |
| 20260505072036 | 56 | 225 | 1.7 | 7.0 | 0.00 | 1.18 | 0.57 | 94 | 1005.5 |
| 20260505071037 | 56 | 225 | 0.9 | 5.2 | 0.00 | 1.18 | 0.57 | 94 | 1005.4 |
| 20260505070016 | 56 | 203 | 0.9 | 4.3 | 0.04 | 1.18 | 0.57 | 93 | 1004.9 |
| 20260505065015 | 56 | 225 | 1.7 | 7.0 | 0.13 | 1.18 | 0.57 | 92 | 1004.7 |
| 20260505064016 | 56 | 225 | 2.6 | 8.7 | 0.29 | 1.18 | 0.57 | 93 | 1004.6 |
| 20260505063018 | 56 | 225 | 2.6 | 7.0 | 0.57 | 1.18 | 0.57 | 93 | 1004.5 |
| 20260505062038 | 56 | 248 | 3.5 | 13.0 | 0.57 | 1.18 | 0.57 | 93 | 1004.1 |
| 20260505061037 | 56 | 315 | 1.7 | 7.8 | 0.57 | 1.18 | 0.57 | 92 | 1004.1 |
| 20260505060015 | 56 | 203 | 3.5 | 13.0 | 0.53 | 1.14 | 0.53 | 90 | 1004.2 |
| 20260505055058 | 57 | 203 | 2.6 | 16.5 | 0.44 | 1.05 | 0.44 | 87 | 1004.7 |
| 20260505054038 | 59 | 315 | 1.7 | 6.1 | 0.28 | 0.89 | 0.28 | 81 | 1005.0 |
| 20260505053017 | 62 | 315 | 4.3 | 12.2 | 0.00 | 0.61 | 0.00 | 79 | 1004.7 |
| 20260505052017 | 64 | 338 | 3.5 | 12.2 | 0.00 | 0.61 | 0.00 | 76 | 1004.5 |
| 20260505051017 | 65 | 225 | 2.6 | 8.7 | 0.00 | 0.61 | 0.00 | 79 | 1002.5 |
| 20260505041016 | 61 | 225 | 2.6 | 9.6 | 0.17 | 0.62 | 0.61 | 90 | 1001.4 |
| 20260505040016 | 61 | 225 | 1.7 | 5.2 | 0.22 | 0.62 | 0.61 | 91 | 1001.3 |
| 20260505035017 | 61 | 225 | 2.6 | 11.3 | 0.28 | 0.62 | 0.61 | 91 | 1001.4 |
| 20260505034018 | 61 | 0.0 | 3.5 | 0.33 | 0.62 | 0.61 | 92 | 1001.6 | |
| 20260505033017 | 61 | 225 | 1.7 | 7.0 | 0.43 | 0.62 | 0.61 | 90 | 1002.0 |
| 20260505032017 | 61 | 203 | 0.9 | 7.8 | 0.48 | 0.55 | 0.54 | 89 | 1001.8 |
| 20260505031017 | 62 | 0.0 | 0.9 | 0.39 | 0.45 | 0.44 | 89 | 1001.7 | |
| 20260505030017 | 63 | 180 | 0.9 | 4.3 | 0.34 | 0.40 | 0.39 | 86 | 1001.6 |
| 20260505025017 | 63 | 180 | 2.6 | 8.7 | 0.28 | 0.34 | 0.33 | 84 | 1001.9 |
| 20260505024017 | 64 | 180 | 2.6 | 4.3 | 0.23 | 0.29 | 0.28 | 81 | 1001.7 |
| 20260505023017 | 67 | 203 | 3.5 | 9.6 | 0.13 | 0.19 | 0.18 | 74 | 1001.8 |
| 20260505022017 | 70 | 180 | 2.6 | 13.0 | 0.01 | 0.07 | 0.06 | 67 | 1001.4 |
| 20260505021017 | 70 | 203 | 4.3 | 14.8 | 0.00 | 0.06 | 0.05 | 60 | 1001.3 |
| 20260505020017 | 70 | 203 | 3.5 | 13.0 | 0.00 | 0.06 | 0.05 | 60 | 1001.2 |
| 20260505015017 | 70 | 225 | 3.5 | 9.6 | 0.00 | 0.06 | 0.05 | 60 | 1001.4 |
| 20260505014016 | 70 | 158 | 3.5 | 10.4 | 0.00 | 0.06 | 0.05 | 61 | 1001.3 |
| 20260505013017 | 70 | 203 | 3.5 | 10.4 | 0.00 | 0.06 | 0.05 | 61 | 1001.2 |
| 20260505012016 | 71 | 248 | 3.5 | 16.5 | 0.00 | 0.06 | 0.05 | 59 | 1001.4 |
| 20260505011016 | 71 | 203 | 3.5 | 14.8 | 0.00 | 0.06 | 0.05 | 56 | 1001.5 |
| 20260505010036 | 72 | 203 | 2.6 | 11.3 | 0.00 | 0.06 | 0.05 | 55 | 1001.3 |
| 20260505005017 | 72 | 203 | 2.6 | 15.6 | 0.00 | 0.06 | 0.05 | 56 | 1001.4 |
| 20260505004017 | 72 | 203 | 2.6 | 11.3 | 0.00 | 0.06 | 0.05 | 54 | 1001.3 |
| 20260505003017 | 72 | 180 | 3.5 | 12.2 | 0.00 | 0.06 | 0.05 | 54 | 1001.3 |
| 20260505002017 | 72 | 0 | 2.6 | 7.0 | 0.00 | 0.06 | 0.05 | 55 | 1001.2 |
| 20260505001017 | 72 | 203 | 2.6 | 12.2 | 0.00 | 0.06 | 0.05 | 54 | 1001.0 |
| 20260505000018 | 73 | 203 | 2.6 | 7.8 | 0.00 | 0.06 | 0.05 | 54 | 1000.9 |
| 20260504235016 | 73 | 180 | 2.6 | 10.4 | 0.00 | 0.06 | 0.05 | 53 | 1000.9 |
| 20260504234016 | 73 | 225 | 3.5 | 12.2 | 0.00 | 0.06 | 0.05 | 54 | 1001.2 |
| 20260504233016 | 73 | 225 | 2.6 | 7.0 | 0.00 | 0.06 | 0.05 | 53 | 1001.5 |
| 20260504232017 | 73 | 203 | 3.5 | 9.6 | 0.00 | 0.06 | 0.05 | 54 | 1001.7 |
| 20260504231016 | 74 | 225 | 2.6 | 8.7 | 0.00 | 0.06 | 0.05 | 53 | 1001.8 |
| 20260504230016 | 74 | 225 | 3.5 | 13.9 | 0.00 | 0.06 | 0.05 | 53 | 1001.9 |
| 20260504225017 | 74 | 203 | 2.6 | 7.0 | 0.00 | 0.06 | 0.05 | 53 | 1002.1 |
| 20260504224037 | 75 | 225 | 3.5 | 13.0 | 0.00 | 0.06 | 0.05 | 52 | 1002.2 |
| 20260504223037 | 75 | 203 | 3.5 | 13.0 | 0.00 | 0.06 | 0.05 | 52 | 1001.9 |
| 20260504222016 | 75 | 180 | 3.5 | 7.8 | 0.00 | 0.06 | 0.05 | 51 | 1001.8 |
| 20260504221037 | 75 | 203 | 3.5 | 15.6 | 0.00 | 0.06 | 0.05 | 52 | 1002.1 |
| 20260504220036 | 75 | 203 | 4.3 | 20.0 | 0.00 | 0.06 | 0.05 | 51 | 1002.3 |
| 20260504215017 | 75 | 225 | 3.5 | 11.3 | 0.00 | 0.06 | 0.05 | 52 | 1002.4 |
| 20260504214016 | 75 | 225 | 3.5 | 9.6 | 0.00 | 0.06 | 0.05 | 56 | 1002.3 |
| 20260504213016 | 75 | 225 | 4.3 | 16.5 | 0.00 | 0.06 | 0.05 | 54 | 1002.5 |
| 20260504212016 | 75 | 248 | 3.5 | 9.6 | 0.00 | 0.06 | 0.05 | 55 | 1002.7 |
| 20260504211017 | 75 | 203 | 3.5 | 11.3 | 0.00 | 0.06 | 0.05 | 56 | 1002.7 |
| 20260504210016 | 75 | 203 | 3.5 | 11.3 | 0.00 | 0.06 | 0.05 | 58 | 1003.1 |
| 20260504205017 | 74 | 225 | 4.3 | 17.4 | 0.00 | 0.06 | 0.05 | 56 | 1002.9 |
| 20260504204016 | 74 | 225 | 3.5 | 12.2 | 0.00 | 0.06 | 0.05 | 57 | 1003.0 |
| 20260504203016 | 73 | 203 | 3.5 | 18.2 | 0.00 | 0.06 | 0.05 | 59 | 1003.0 |
| 20260504202016 | 73 | 225 | 4.3 | 17.4 | 0.00 | 0.06 | 0.05 | 59 | 1003.2 |
| 20260504201017 | 73 | 203 | 3.5 | 8.7 | 0.00 | 0.06 | 0.05 | 60 | 1003.4 |
| 20260504200016 | 73 | 225 | 4.3 | 15.6 | 0.00 | 0.06 | 0.05 | 62 | 1003.7 |
| 20260504195016 | 72 | 225 | 4.3 | 16.5 | 0.00 | 0.06 | 0.05 | 62 | 1004.0 |
| 20260504194016 | 72 | 203 | 4.3 | 13.9 | 0.00 | 0.06 | 0.05 | 62 | 1004.4 |
| 20260504193017 | 72 | 203 | 3.5 | 7.0 | 0.00 | 0.06 | 0.05 | 65 | 1004.5 |
| 20260504192017 | 72 | 225 | 3.5 | 10.4 | 0.00 | 0.06 | 0.05 | 65 | 1004.6 |
| 20260504191016 | 73 | 225 | 3.5 | 9.6 | 0.00 | 0.06 | 0.05 | 62 | 1004.3 |
| 20260504190036 | 74 | 225 | 3.5 | 10.4 | 0.00 | 0.06 | 0.05 | 62 | 1004.3 |
| 20260504185017 | 74 | 225 | 2.6 | 8.7 | 0.00 | 0.06 | 0.05 | 62 | 1004.2 |
| 20260504184016 | 73 | 203 | 2.6 | 12.2 | 0.00 | 0.06 | 0.05 | 63 | 1004.3 |
| 20260504183016 | 73 | 203 | 3.5 | 7.0 | 0.00 | 0.06 | 0.05 | 64 | 1004.5 |
| 20260504182016 | 73 | 180 | 2.6 | 9.6 | 0.00 | 0.06 | 0.05 | 64 | 1004.3 |
| 20260504181016 | 72 | 203 | 4.3 | 10.4 | 0.00 | 0.06 | 0.05 | 66 | 1004.4 |
| 20260504180016 | 70 | 180 | 2.6 | 6.1 | 0.00 | 0.06 | 0.05 | 70 | 1004.3 |
| 20260504175017 | 68 | 203 | 2.6 | 7.0 | 0.00 | 0.06 | 0.05 | 75 | 1004.3 |
| 20260504174016 | 67 | 180 | 0.9 | 3.5 | 0.00 | 0.06 | 0.05 | 78 | 1004.4 |
| 20260504173016 | 66 | 225 | 2.6 | 5.2 | 0.00 | 0.06 | 0.05 | 79 | 1004.7 |
| 20260504172016 | 65 | 180 | 2.6 | 7.0 | 0.00 | 0.06 | 0.05 | 79 | 1004.4 |
| 20260504171017 | 65 | 203 | 2.6 | 5.2 | 0.00 | 0.06 | 0.05 | 81 | 1004.7 |